Temp
9 9 8 8 8 8 8 7 7 7 7 6 6 6 5 5 5 5 4 4 4 4 4 4 4 3 3 3 3 2 2 2 2 1 1 1 1 0 0 0 -0 -0 -0 -0 -1 -1 -1 -1 -1 -1 -1 -1 -1 -1 -1 -1 -1 -1 -1 -1 -2 -2 -2 -2 -2 -2 -2 -2 -2
8 8 8 8 7 7 7 7 6 6 6 5 5 5 5 5 5 5 4 4 4 3 3 3 3 3 3 2 2 2 2 2 1 1 1 1 1 0 0 0 -0 -0 -0 -0 -1 -1 -1 -1 -1 -1 -1 -1 -2 -2 -2 -2 -2 -1 -1 -2 -2 -2 -2 -2 -2 -2 -2 -3 -3
7 7 7 7 7 6 6 5 5 5 5 5 5 5 5 5 5 5 4 4 3 3 3 3 3 3 3 2 2 2 2 1 1 1 1 1 0 0 0 0 -0 -0 -0 -0 -1 -1 -1 -1 -1 -1 -1 -2 -2 -2 -2 -2 -2 -2 -2 -2 -2 -2 -2 -2 -2 -3 -3 -3 -3
7 7 6 6 6 6 5 5 5 5 5 5 5 5 4 4 4 4 4 3 3 3 3 3 3 3 3 3 2 2 1 1 1 1 0 0 0 -0 -0 -0 -0 -0 -0 -1 -1 -1 -1 -1 -1 -1 -1 -2 -2 -2 -2 -2 -2 -2 -2 -2 -2 -2 -2 -3 -3 -3 -3 -3 -3
6 6 6 6 6 6 6 5 5 5 5 5 5 4 4 4 3 3 3 3 3 3 3 3 3 3 3 3 2 2 1 1 1 0 0 0 -0 -0 -0 -0 -0 -0 -1 -1 -1 -1 -1 -1 -1 -2 -2 -2 -2 -2 -2 -2 -2 -2 -2 -2 -3 -3 -3 -3 -3 -3 -3 -3 -3
5 6 6 6 6 6 5 5 5 5 5 4 4 4 3 3 3 3 3 3 3 2 2 2 3 3 3 2 2 1 1 1 0 0 0 0 -0 -0 -0 -0 -1 -1 -1 -1 -1 -1 -1 -1 -2 -2 -2 -2 -2 -2 -2 -2 -2 -2 -3 -3 -3 -3 -3 -3 -3 -3 -3 -3 -3
5 5 5 5 5 5 5 4 4 4 4 4 3 3 3 3 3 3 3 3 3 2 2 2 2 2 2 2 1 1 1 0 0 0 0 -0 -0 -0 -0 -1 -1 -1 -1 -1 -1 -1 -1 -2 -2 -2 -2 -2 -2 -2 -2 -2 -2 -2 -3 -3 -3 -3 -3 -3 -3 -3 -3 -3 -3
4 5 5 5 5 4 4 4 4 4 3 3 3 3 3 4 4 3 3 3 2 2 2 2 2 1 1 1 1 1 0 0 0 0 -0 -0 -0 -1 -1 -1 -1 -1 -1 -1 -2 -2 -2 -2 -2 -2 -2 -2 -2 -2 -2 -2 -2 -2 -2 -2 -3 -3 -3 -3 -3 -3 -3 -4 -4
4 4 4 4 4 4 4 4 4 4 4 3 3 3 3 3 3 3 3 3 2 2 2 2 1 1 1 1 1 0 0 0 0 -0 -0 -0 -1 -1 -1 -1 -1 -2 -2 -2 -2 -2 -2 -2 -2 -2 -2 -2 -2 -2 -2 -2 -2 -2 -2 -3 -3 -3 -3 -3 -3 -3 -4 -4 -4
4 4 4 4 4 4 4 4 3 3 3 3 3 3 3 3 3 3 3 3 2 2 2 2 1 1 1 1 0 0 0 -0 -0 -0 -1 -1 -1 -1 -1 -1 -2 -2 -2 -2 -2 -2 -2 -2 -2 -2 -2 -2 -2 -2 -2 -2 -2 -3 -3 -3 -3 -3 -3 -3 -4 -4 -4 -4 -4
4 4 4 4 4 4 3 3 3 3 3 3 3 3 2 2 2 2 2 2 2 2 2 1 1 1 1 0 0 0 0 -0 -0 -1 -1 -1 -1 -1 -1 -1 -2 -2 -2 -2 -2 -2 -2 -2 -2 -2 -2 -2 -2 -2 -2 -2 -3 -3 -3 -3 -3 -3 -4 -4 -4 -4 -4 -4 -4
4 4 4 4 4 3 3 3 3 3 3 3 3 3 3 2 2 2 2 2 2 2 1 1 1 1 0 0 0 -0 -0 -0 -1 -1 -1 -1 -1 -1 -1 -1 -2 -2 -2 -2 -2 -2 -2 -2 -2 -2 -2 -2 -2 -2 -2 -3 -3 -3 -3 -3 -4 -4 -4 -4 -4 -4 -4 -4 -4
4 4 4 3 3 3 3 3 3 3 3 3 3 3 3 2 2 2 2 2 2 1 1 1 1 1 0 0 0 -0 -0 -1 -1 -1 -1 -1 -1 -1 -2 -2 -2 -2 -2 -2 -2 -2 -2 -2 -2 -2 -2 -2 -2 -2 -3 -3 -3 -3 -3 -4 -4 -4 -4 -4 -4 -4 -4 -4 -5
4 4 3 3 3 3 3 3 3 3 3 3 3 3 2 2 2 2 2 1 1 1 1 1 1 0 0 0 -0 -0 -0 -1 -1 -1 -1 -1 -1 -2 -2 -2 -2 -2 -2 -2 -2 -2 -2 -2 -2 -2 -2 -2 -2 -3 -3 -3 -3 -3 -4 -4 -4 -4 -4 -4 -4 -5 -5 -5 -5
3 3 3 3 3 3 3 3 3 3 3 3 3 3 2 2 2 2 2 1 1 1 1 1 0 0 0 0 -0 -0 -1 -1 -1 -1 -1 -1 -2 -2 -2 -2 -2 -2 -2 -2 -2 -2 -2 -2 -2 -2 -2 -2 -3 -3 -3 -3 -3 -4 -4 -4 -4 -4 -4 -5 -5 -5 -5 -5 -5
3 3 3 3 3 3 3 3 3 3 3 3 3 2 2 2 2 2 1 1 1 1 1 1 0 0 -0 -0 -0 -1 -1 -1 -1 -1 -1 -2 -2 -1 -1 -1 -2 -2 -2 -2 -2 -2 -2 -2 -2 -2 -2 -3 -3 -3 -3 -4 -4 -4 -4 -4 -4 -4 -5 -5 -5 -5 -5 -5 -5
3 3 3 3 3 3 3 3 3 3 2 2 2 2 2 2 2 2 1 1 1 1 0 0 0 -0 -0 -0 -1 -1 -1 -1 -1 -1 -1 -1 -1 -1 -2 -2 -2 -2 -2 -2 -2 -2 -2 -2 -3 -3 -3 -3 -3 -3 -4 -4 -4 -4 -4 -4 -4 -5 -5 -5 -5 -6 -6 -6 -6
3 3 3 3 3 3 3 3 3 2 2 2 2 2 2 2 2 1 1 1 1 0 0 0 -0 -0 -0 -1 -1 -1 -1 -1 -1 -1 -1 -1 -2 -2 -2 -2 -2 -2 -2 -2 -2 -3 -3 -3 -3 -3 -3 -3 -3 -4 -4 -4 -4 -4 -4 -4 -5 -5 -5 -6 -6 -6 -6 -6 -6
3 3 3 3 3 3 3 3 3 2 2 2 2 2 2 2 2 1 1 1 1 1 0 -0 -0 -1 -1 -1 -1 -1 -1 -1 -1 -1 -1 -2 -2 -2 -2 -2 -2 -2 -2 -3 -3 -3 -3 -3 -3 -3 -3 -3 -3 -4 -4 -4 -4 -4 -4 -5 -5 -5 -6 -6 -6 -6 -6 -6 -6
3 3 3 3 3 3 3 3 3 2 2 2 2 2 2 2 1 1 1 1 1 1 0 -0 -0 -1 -1 -1 -1 -1 -1 -1 -1 -1 -2 -2 -2 -2 -2 -2 -2 -3 -3 -3 -3 -3 -3 -3 -3 -3 -3 -3 -4 -4 -4 -4 -4 -4 -5 -5 -5 -6 -6 -6 -6 -6 -6 -6 -6
3 4 4 3 3 3 3 3 2 2 2 2 2 2 2 1 1 1 1 1 1 0 0 -0 -0 -1 -1 -1 -1 -1 -1 -1 -1 -2 -2 -2 -2 -2 -2 -3 -3 -3 -3 -3 -3 -3 -3 -3 -3 -3 -3 -3 -4 -4 -4 -4 -5 -5 -5 -5 -5 -6 -6 -6 -6 -6 -7 -7 -7
4 4 3 3 3 3 3 2 2 2 2 2 2 2 1 1 1 1 1 1 1 0 0 -0 -0 -0 -1 -1 -1 -1 -1 -1 -2 -2 -2 -2 -2 -2 -3 -3 -3 -3 -3 -3 -3 -3 -3 -3 -4 -4 -4 -4 -4 -4 -4 -4 -5 -5 -5 -5 -6 -6 -6 -6 -6 -7 -7 -7 -7
3 3 3 3 3 3 2 2 2 2 2 2 2 1 1 1 1 1 1 1 1 0 0 -0 -0 -0 -1 -1 -1 -1 -1 -2 -2 -2 -2 -2 -2 -3 -3 -3 -3 -3 -3 -3 -3 -3 -3 -3 -4 -4 -4 -4 -4 -4 -4 -5 -5 -5 -5 -5 -5 -6 -6 -6 -6 -7 -7 -7 -7
3 3 3 3 2 2 2 2 2 2 2 2 2 1 1 1 1 1 1 1 1 0 0 0 -0 -0 -1 -1 -1 -1 -1 -2 -2 -2 -2 -2 -2 -3 -3 -3 -3 -3 -4 -4 -4 -4 -4 -4 -4 -4 -4 -4 -4 -4 -4 -5 -5 -5 -5 -5 -5 -6 -6 -6 -7 -7 -7 -7 -7
3 3 2 2 2 2 2 2 2 2 2 2 1 1 1 1 1 1 1 1 1 0 0 0 -0 -0 -1 -1 -1 -1 -2 -2 -2 -2 -2 -2 -3 -3 -3 -3 -3 -4 -4 -4 -4 -4 -4 -4 -4 -4 -4 -4 -4 -4 -5 -5 -5 -5 -5 -5 -6 -6 -6 -6 -7 -7 -7 -7 -7
3 2 2 2 2 2 2 2 2 2 2 1 1 1 1 1 1 1 1 1 0 0 0 0 -0 -0 -1 -1 -1 -1 -2 -2 -2 -2 -2 -3 -3 -3 -3 -3 -4 -4 -4 -4 -4 -4 -4 -4 -4 -4 -4 -4 -4 -4 -5 -5 -5 -5 -5 -6 -6 -6 -6 -7 -7 -7 -7 -7 -7
2 2 2 2 2 2 2 2 2 1 1 1 1 1 1 1 0 0 0 0 0 0 -0 -0 -0 -1 -1 -1 -1 -2 -2 -2 -2 -2 -2 -3 -3 -3 -3 -3 -4 -4 -4 -4 -4 -4 -4 -4 -4 -4 -4 -4 -4 -5 -5 -5 -5 -5 -6 -6 -6 -6 -7 -7 -8 -8 -7 -7 -8
2 2 2 2 2 2 2 1 1 1 1 1 0 0 0 0 0 0 0 -0 -0 -0 -0 -1 -1 -1 -1 -1 -2 -2 -2 -2 -2 -2 -3 -3 -3 -3 -3 -3 -4 -4 -4 -4 -4 -4 -4 -4 -4 -4 -4 -4 -5 -5 -5 -5 -5 -6 -6 -6 -6 -7 -7 -8 -8 -8 -8 -8 -8
2 2 2 2 2 2 1 1 0 0 0 0 0 0 0 0 -0 -0 -0 -0 -0 -1 -1 -1 -1 -1 -1 -1 -2 -2 -2 -2 -2 -2 -3 -3 -3 -3 -3 -3 -4 -4 -4 -4 -4 -4 -4 -4 -4 -4 -4 -5 -5 -5 -5 -5 -6 -6 -6 -6 -6 -7 -8 -8 -8 -8 -8 -8 -8
2 2 2 2 1 1 0 0 0 0 0 0 0 0 -0 -0 -0 -0 -0 -1 -1 -1 -1 -1 -1 -1 -1 -2 -2 -2 -2 -2 -2 -2 -3 -3 -3 -4 -4 -4 -4 -4 -4 -4 -4 -4 -4 -4 -4 -5 -5 -5 -5 -5 -5 -6 -6 -6 -6 -6 -7 -8 -8 -8 -8 -8 -8 -8 -9
2 2 2 1 1 0 -0 -0 -0 -0 0 -0 -0 -0 -0 -0 -0 -1 -1 -1 -1 -1 -1 -1 -1 -1 -1 -2 -2 -2 -2 -2 -2 -2 -3 -3 -3 -4 -4 -4 -4 -4 -4 -4 -4 -4 -4 -4 -5 -5 -5 -5 -5 -5 -6 -6 -6 -6 -6 -7 -8 -8 -8 -8 -8 -8 -9 -9 -9
2 1 1 0 -0 -0 -0 -0 -0 -0 -0 -0 -0 -0 -0 -0 -1 -1 -1 -1 -1 -1 -1 -1 -1 -1 -1 -2 -2 -2 -2 -2 -2 -3 -3 -3 -4 -4 -4 -4 -4 -4 -4 -4 -4 -4 -5 -5 -5 -5 -5 -5 -5 -6 -6 -6 -6 -6 -7 -7 -8 -8 -9 -9 -9 -9 -9 -9 -9
1 0 -0 -0 -0 -0 -0 -0 -0 -0 -0 -0 -0 -0 -1 -1 -1 -1 -1 -1 -1 -1 -1 -1 -1 -2 -2 -2 -2 -2 -2 -2 -3 -3 -3 -3 -4 -4 -4 -4 -5 -4 -4 -4 -5 -5 -5 -5 -5 -5 -5 -6 -6 -6 -6 -6 -6 -6 -7 -8 -8 -9 -9 -9 -9 -9 -9 -9 -10
0 -0 -0 -0 -0 -0 -0 -0 -0 -0 -0 -0 -1 -1 -1 -1 -1 -1 -1 -1 -1 -1 -1 -1 -2 -2 -2 -2 -2 -2 -2 -3 -3 -3 -3 -3 -4 -4 -4 -4 -5 -5 -5 -5 -5 -5 -5 -5 -5 -5 -6 -6 -6 -6 -6 -6 -6 -7 -7 -7 -8 -9 -9 -9 -9 -9 -9 -10 -10
-0 -0 -0 -0 -0 -0 -0 -0 -0 -0 -1 -1 -1 -1 -1 -1 -1 -1 -1 -1 -1 -1 -1 -1 -2 -2 -2 -2 -2 -2 -3 -3 -3 -3 -3 -4 -4 -4 -4 -4 -5 -5 -5 -5 -5 -5 -5 -5 -6 -6 -6 -6 -6 -6 -6 -6 -6 -7 -7 -7 -8 -8 -9 -9 -9 -9 -10 -10 -10
-0 -0 -0 -0 -0 -0 -0 -0 -0 -1 -1 -1 -1 -1 -1 -1 -1 -1 -1 -1 -1 -1 -1 -1 -2 -2 -2 -2 -2 -2 -3 -3 -3 -3 -4 -4 -4 -4 -5 -5 -5 -5 -5 -5 -5 -5 -5 -6 -6 -6 -6 -6 -6 -6 -6 -6 -7 -7 -7 -7 -8 -8 -8 -9 -9 -9 -9 -10 -10
-0 -0 -0 -0 -0 -0 -0 -1 -1 -1 -1 -1 -1 -1 -1 -1 -1 -1 -1 -1 -1 -1 -1 -1 -2 -2 -2 -2 -2 -2 -3 -3 -3 -4 -4 -4 -4 -4 -5 -5 -5 -5 -5 -5 -5 -6 -6 -6 -6 -6 -6 -6 -6 -6 -6 -7 -7 -7 -7 -7 -8 -8 -8 -8 -9 -9 -9 -10 -10
-0 -0 -0 -0 -0 -1 -1 -1 -1 -0 -0 -1 -1 -1 -1 -1 -1 -1 -1 -1 -1 -1 -1 -2 -2 -2 -2 -2 -2 -2 -3 -3 -3 -4 -4 -4 -4 -4 -5 -5 -5 -5 -6 -6 -6 -6 -6 -6 -6 -6 -6 -6 -6 -6 -7 -7 -7 -7 -7 -7 -8 -8 -8 -8 -8 -9 -9 -10 -10
-0 -0 -0 -1 -1 -1 -1 -0 -0 -1 -1 -1 -1 -1 -1 -1 -1 -1 -1 -1 -1 -1 -2 -2 -2 -2 -2 -2 -3 -3 -3 -3 -4 -4 -4 -4 -4 -5 -5 -5 -5 -6 -6 -6 -6 -6 -6 -7 -7 -7 -6 -6 -6 -7 -7 -7 -7 -7 -7 -7 -8 -8 -8 -8 -8 -9 -9 -10 -10
-0 -0 -1 -1 -1 -1 -0 -1 -1 -1 -1 -1 -1 -1 -1 -1 -1 -1 -1 -1 -1 -2 -2 -2 -2 -2 -2 -3 -3 -3 -3 -4 -4 -4 -4 -4 -5 -5 -5 -5 -5 -6 -6 -6 -6 -6 -6 -7 -7 -7 -7 -7 -7 -7 -7 -7 -7 -7 -7 -8 -8 -8 -8 -8 -8 -9 -9 -10 -10
-1 -1 -1 -1 -1 -1 -1 -1 -1 -1 -1 -1 -1 -1 -1 -1 -1 -1 -1 -1 -2 -2 -2 -2 -2 -3 -3 -3 -3 -3 -4 -4 -4 -4 -4 -4 -5 -5 -5 -5 -6 -6 -6 -7 -6 -6 -6 -7 -7 -7 -7 -7 -7 -7 -7 -7 -7 -7 -7 -8 -8 -8 -8 -8 -8 -9 -9 -10 -11
Height
1542 1542 1542 1542 1542 1542 1542 1542 1542 1542 1541 1541 1541 1542 1542 1542 1542 1542 1541 1541 1540 1540 1539 1539 1539 1539 1538 1538 1537 1537 1537 1537 1537 1537 1536 1536 1536 1536 1535 1535 1534 1534 1533 1533 1532 1532 1531 1530 1529 1529 1528 1528 1527 1527 1526 1526 1526 1525 1524 1524 1523 1523 1522 1521 1521 1520 1520 1520 1519
1541 1542 1542 1542 1541 1541 1541 1541 1540 1540 1540 1540 1540 1541 1541 1541 1541 1541 1540 1540 1539 1539 1538 1538 1538 1538 1537 1537 1536 1536 1536 1536 1536 1536 1535 1535 1535 1535 1535 1534 1534 1533 1533 1533 1532 1531 1531 1530 1529 1528 1527 1527 1526 1526 1525 1525 1525 1524 1524 1523 1522 1522 1521 1520 1519 1519 1519 1518 1518
1542 1542 1542 1541 1541 1541 1540 1540 1540 1539 1539 1539 1539 1539 1540 1540 1540 1540 1539 1539 1538 1538 1538 1537 1537 1537 1536 1536 1536 1535 1535 1535 1535 1534 1534 1534 1534 1534 1534 1534 1533 1533 1532 1532 1531 1531 1530 1529 1528 1528 1527 1526 1525 1525 1525 1524 1524 1523 1523 1522 1521 1520 1519 1519 1518 1518 1518 1517 1517
1542 1542 1542 1542 1542 1541 1541 1541 1540 1540 1539 1539 1539 1539 1539 1539 1539 1539 1538 1538 1538 1537 1537 1536 1536 1536 1535 1535 1535 1534 1534 1534 1534 1533 1533 1533 1533 1533 1533 1533 1533 1532 1531 1531 1530 1530 1529 1528 1528 1527 1526 1525 1524 1524 1524 1523 1523 1523 1522 1521 1520 1519 1518 1518 1517 1517 1516 1516 1515
1543 1543 1543 1543 1542 1542 1541 1541 1540 1540 1539 1538 1538 1538 1538 1538 1538 1538 1538 1538 1537 1537 1536 1535 1535 1535 1535 1534 1534 1534 1533 1533 1533 1533 1533 1533 1533 1533 1532 1532 1532 1531 1530 1530 1529 1528 1528 1528 1527 1526 1525 1524 1524 1523 1523 1523 1522 1522 1521 1520 1519 1518 1518 1517 1516 1516 1515 1514 1514
1541 1542 1543 1543 1542 1541 1541 1541 1540 1539 1539 1538 1538 1538 1538 1538 1538 1538 1537 1537 1537 1536 1535 1534 1534 1534 1534 1533 1533 1533 1533 1533 1533 1533 1533 1533 1532 1532 1531 1531 1530 1530 1529 1528 1528 1527 1527 1526 1525 1525 1524 1524 1523 1523 1522 1522 1521 1520 1520 1519 1518 1518 1517 1516 1516 1515 1514 1513 1513
1539 1540 1541 1541 1541 1540 1540 1540 1539 1539 1538 1538 1538 1538 1538 1538 1538 1537 1537 1536 1536 1535 1535 1534 1533 1533 1533 1533 1533 1533 1533 1533 1533 1533 1533 1532 1531 1531 1530 1529 1529 1528 1528 1527 1527 1526 1525 1525 1524 1524 1523 1523 1523 1522 1522 1521 1521 1520 1519 1518 1518 1517 1517 1516 1515 1514 1513 1512 1511
1538 1539 1539 1539 1539 1539 1539 1539 1539 1539 1539 1538 1538 1538 1537 1537 1537 1537 1536 1536 1535 1535 1534 1533 1533 1533 1533 1533 1533 1533 1533 1533 1533 1533 1532 1531 1530 1529 1529 1528 1528 1527 1527 1526 1525 1524 1524 1523 1523 1523 1522 1522 1521 1521 1521 1520 1520 1519 1518 1518 1517 1516 1516 1515 1514 1513 1512 1511 1510
1538 1538 1538 1538 1538 1538 1538 1538 1538 1538 1538 1538 1538 1537 1537 1537 1537 1536 1536 1535 1534 1534 1533 1533 1533 1532 1532 1532 1532 1532 1532 1533 1533 1532 1531 1530 1529 1528 1528 1527 1527 1526 1525 1524 1524 1523 1523 1522 1522 1521 1521 1521 1520 1520 1520 1519 1518 1518 1517 1516 1516 1515 1514 1514 1513 1512 1511 1510 1509
1537 1537 1537 1537 1538 1538 1538 1538 1538 1538 1538 1538 1537 1536 1536 1536 1536 1535 1535 1534 1534 1533 1533 1532 1532 1532 1532 1532 1532 1532 1532 1532 1532 1531 1530 1529 1529 1528 1527 1526 1526 1525 1524 1523 1523 1522 1522 1521 1521 1520 1520 1520 1519 1519 1518 1518 1517 1516 1516 1515 1514 1513 1513 1513 1512 1511 1510 1509 1508
1537 1537 1537 1537 1537 1537 1537 1537 1537 1537 1537 1537 1537 1536 1535 1535 1535 1534 1534 1533 1533 1533 1532 1532 1531 1531 1532 1532 1532 1532 1532 1531 1531 1530 1529 1529 1528 1527 1526 1525 1525 1524 1523 1523 1522 1521 1521 1521 1520 1520 1519 1519 1518 1518 1517 1517 1516 1515 1514 1513 1513 1513 1512 1511 1511 1510 1508 1507 1506
1537 1537 1537 1536 1536 1536 1536 1536 1536 1536 1536 1536 1536 1536 1535 1535 1534 1534 1533 1533 1532 1532 1531 1531 1531 1531 1531 1531 1531 1531 1531 1530 1530 1529 1529 1528 1527 1526 1525 1525 1524 1523 1523 1522 1522 1521 1521 1520 1519 1519 1518 1518 1517 1517 1516 1515 1514 1513 1513 1512 1512 1511 1510 1509 1509 1508 1507 1506 1505
1537 1537 1536 1536 1536 1536 1536 1536 1536 1536 1535 1535 1535 1535 1534 1534 1534 1533 1533 1532 1531 1531 1531 1530 1531 1531 1531 1531 1531 1531 1530 1530 1529 1528 1528 1527 1527 1526 1525 1524 1523 1523 1523 1522 1521 1521 1520 1519 1518 1518 1517 1517 1516 1515 1515 1514 1513 1512 1511 1511 1510 1509 1508 1508 1507 1507 1506 1504 1503
1536 1536 1536 1536 1535 1535 1535 1535 1535 1535 1534 1534 1534 1534 1533 1533 1533 1532 1532 1531 1530 1530 1530 1529 1530 1530 1530 1530 1530 1530 1530 1529 1528 1528 1527 1527 1526 1525 1524 1524 1523 1523 1523 1522 1521 1520 1519 1518 1518 1517 1516 1515 1515 1514 1513 1513 1512 1511 1510 1509 1508 1508 1507 1507 1506 1505 1504 1503 1502
1535 1535 1535 1535 1535 1535 1534 1534 1534 1534 1534 1534 1533 1533 1533 1532 1532 1531 1530 1530 1529 1529 1528 1528 1529 1529 1529 1529 1529 1529 1529 1528 1528 1527 1526 1526 1525 1525 1524 1524 1523 1523 1522 1521 1520 1519 1518 1518 1517 1516 1515 1514 1513 1513 1512 1511 1510 1509 1508 1507 1507 1506 1506 1505 1505 1504 1503 1501 1500
1534 1534 1534 1534 1534 1534 1534 1534 1534 1534 1533 1533 1533 1533 1532 1531 1531 1530 1530 1529 1528 1528 1528 1528 1528 1528 1528 1528 1528 1528 1527 1527 1526 1526 1526 1525 1525 1525 1524 1524 1523 1522 1521 1520 1519 1518 1518 1517 1516 1515 1514 1513 1512 1511 1510 1509 1508 1508 1507 1506 1506 1505 1505 1504 1503 1502 1501 1500 1498
1533 1533 1533 1534 1534 1534 1534 1534 1533 1533 1533 1533 1533 1532 1532 1531 1531 1530 1529 1529 1528 1528 1527 1527 1527 1527 1527 1527 1527 1527 1526 1525 1525 1525 1525 1525 1524 1524 1523 1523 1522 1521 1520 1519 1518 1517 1516 1515 1515 1514 1513 1512 1511 1510 1509 1508 1507 1506 1505 1505 1504 1504 1503 1503 1502 1501 1499 1498 1497
1532 1533 1533 1533 1533 1533 1533 1533 1533 1533 1533 1532 1532 1532 1532 1531 1531 1530 1529 1529 1528 1527 1527 1527 1526 1526 1526 1526 1525 1525 1525 1524 1524 1524 1524 1524 1523 1523 1523 1522 1521 1520 1519 1518 1517 1516 1515 1514 1513 1513 1512 1511 1510 1509 1508 1507 1506 1505 1504 1503 1503 1503 1502 1501 1500 1499 1498 1496 1495
1532 1532 1532 1533 1533 1533 1532 1532 1532 1532 1532 1532 1532 1531 1531 1531 1530 1530 1529 1528 1528 1527 1526 1526 1525 1525 1525 1525 1524 1524 1524 1523 1523 1523 1523 1523 1522 1522 1521 1521 1520 1519 1518 1517 1516 1515 1514 1513 1512 1512 1511 1510 1509 1508 1507 1505 1504 1504 1503 1502 1502 1501 1500 1499 1498 1497 1496 1495 1493
1531 1531 1532 1532 1532 1532 1531 1531 1531 1531 1530 1530 1530 1530 1530 1530 1529 1529 1528 1528 1527 1526 1526 1525 1525 1524 1524 1524 1523 1523 1523 1523 1523 1522 1522 1521 1521 1521 1520 1519 1518 1517 1516 1515 1514 1513 1513 1512 1511 1510 1510 1509 1508 1507 1505 1504 1503 1503 1502 1501 1500 1500 1499 1498 1497 1495 1494 1493 1492
1531 1531 1531 1531 1531 1531 1530 1530 1530 1529 1529 1529 1529 1529 1529 1529 1528 1528 1528 1527 1526 1526 1525 1524 1524 1523 1523 1523 1523 1523 1522 1522 1522 1521 1520 1520 1520 1519 1518 1518 1517 1516 1515 1514 1513 1512 1511 1510 1510 1509 1508 1508 1507 1506 1504 1503 1502 1501 1500 1500 1499 1498 1497 1496 1494 1493 1492 1491 1490
1530 1530 1530 1530 1530 1530 1530 1530 1529 1529 1528 1528 1528 1528 1528 1528 1528 1527 1527 1526 1525 1524 1524 1523 1523 1522 1522 1522 1522 1521 1521 1521 1520 1520 1519 1519 1518 1518 1517 1516 1515 1514 1513 1512 1511 1510 1509 1509 1508 1508 1507 1506 1505 1504 1503 1502 1501 1500 1499 1498 1497 1496 1495 1493 1492 1491 1490 1489 1488
1530 1529 1529 1529 1529 1529 1529 1529 1529 1529 1528 1528 1528 1528 1527 1527 1527 1527 1526 1525 1524 1524 1523 1522 1522 1521 1521 1521 1520 1520 1520 1519 1519 1518 1518 1517 1517 1516 1515 1514 1513 1513 1512 1510 1509 1508 1508 1508 1507 1506 1506 1505 1504 1503 1502 1501 1500 1498 1498 1496 1495 1494 1493 1491 1490 1489 1488 1487 1487
1528 1528 1528 1529 1529 1529 1529 1529 1529 1529 1528 1528 1528 1527 1527 1527 1526 1526 1525 1525 1524 1523 1522 1522 1521 1521 1520 1520 1519 1519 1518 1518 1517 1517 1516 1516 1515 1515 1514 1513 1512 1511 1510 1508 1508 1507 1507 1506 1505 1504 1504 1503 1502 1501 1500 1499 1498 1497 1496 1495 1493 1492 1490 1489 1488 1487 1486 1486 1485
1527 1528 1528 1528 1529 1529 1529 1529 1528 1528 1528 1528 1528 1527 1527 1526 1526 1525 1525 1524 1523 1522 1522 1521 1521 1520 1520 1519 1518 1518 1517 1516 1516 1515 1515 1514 1514 1513 1512 1511 1511 1510 1508 1507 1506 1506 1505 1504 1504 1503 1502 1501 1501 1500 1499 1498 1497 1496 1494 1493 1492 1490 1488 1487 1486 1485 1485 1484 1484
1527 1527 1527 1528 1528 1528 1528 1528 1528 1528 1527 1527 1527 1526 1526 1525 1525 1524 1524 1523 1522 1521 1521 1520 1520 1519 1518 1518 1517 1516 1516 1515 1515 1514 1513 1513 1512 1511 1511 1510 1509 1508 1506 1505 1505 1504 1504 1503 1503 1502 1501 1500 1499 1498 1497 1496 1495 1494 1493 1491 1490 1488 1486 1485 1484 1484 1483 1483 1482
1526 1526 1526 1527 1527 1527 1527 1527 1527 1526 1526 1525 1525 1525 1524 1524 1523 1523 1523 1522 1521 1520 1519 1519 1518 1518 1517 1517 1516 1515 1514 1514 1513 1513 1512 1511 1510 1510 1509 1509 1508 1506 1505 1504 1504 1503 1503 1502 1501 1500 1500 1499 1498 1497 1496 1495 1494 1493 1491 1490 1488 1486 1485 1484 1483 1483 1482 1481 1480
1525 1525 1526 1526 1526 1526 1526 1525 1525 1524 1524 1524 1524 1523 1523 1523 1522 1522 1521 1520 1520 1519 1518 1518 1517 1517 1516 1515 1514 1514 1513 1513 1513 1512 1511 1510 1509 1508 1508 1508 1507 1505 1503 1503 1503 1502 1501 1501 1500 1499 1498 1498 1497 1496 1494 1493 1492 1491 1489 1488 1486 1485 1483 1483 1482 1482 1481 1479 1478
1524 1524 1525 1525 1525 1525 1524 1524 1523 1523 1523 1523 1523 1522 1522 1521 1521 1520 1520 1519 1518 1517 1517 1516 1515 1515 1514 1513 1513 1513 1512 1512 1512 1511 1510 1509 1508 1508 1507 1507 1506 1504 1502 1502 1501 1501 1500 1499 1498 1498 1497 1496 1495 1494 1493 1492 1491 1489 1488 1486 1484 1483 1483 1482 1482 1481 1479 1478 1476
1523 1523 1524 1524 1523 1523 1523 1522 1522 1522 1522 1521 1521 1521 1520 1520 1519 1519 1518 1517 1517 1516 1515 1514 1514 1513 1513 1513 1512 1512 1511 1511 1511 1510 1509 1508 1507 1507 1506 1507 1506 1503 1501 1501 1500 1499 1499 1498 1497 1497 1496 1495 1494 1493 1492 1491 1489 1488 1486 1484 1483 1482 1482 1481 1480 1479 1478 1476 1474
1523 1523 1523 1522 1521 1521 1521 1521 1521 1521 1520 1520 1520 1519 1519 1519 1518 1518 1517 1516 1515 1514 1514 1513 1513 1512 1512 1511 1511 1510 1510 1510 1510 1509 1508 1507 1506 1506 1506 1506 1505 1502 1500 1500 1499 1498 1498 1497 1496 1495 1495 1494 1493 1492 1491 1489 1488 1486 1484 1483 1482 1482 1481 1480 1478 1477 1475 1474 1473
1522 1521 1520 1519 1519 1519 1519 1520 1520 1519 1519 1519 1518 1518 1518 1517 1517 1516 1515 1514 1513 1513 1512 1512 1511 1511 1510 1510 1510 1509 1509 1509 1508 1508 1507 1507 1506 1505 1505 1504 1503 1501 1499 1499 1498 1498 1497 1496 1495 1495 1494 1493 1492 1491 1489 1488 1486 1485 1483 1482 1481 1481 1480 1478 1476 1475 1474 1472 1471
1520 1519 1518 1518 1518 1518 1519 1519 1518 1518 1518 1518 1517 1517 1516 1516 1515 1514 1514 1513 1512 1512 1511 1510 1510 1509 1509 1508 1508 1508 1508 1507 1507 1507 1506 1506 1505 1504 1504 1503 1502 1500 1498 1498 1497 1497 1496 1495 1494 1494 1493 1492 1491 1489 1488 1487 1485 1483 1482 1481 1480 1479 1478 1476 1475 1473 1472 1471 1470
1518 1518 1518 1518 1518 1518 1518 1518 1517 1517 1517 1516 1516 1515 1515 1514 1513 1513 1512 1512 1511 1510 1510 1509 1509 1508 1508 1507 1507 1506 1506 1506 1505 1505 1505 1504 1504 1503 1503 1502 1500 1499 1498 1497 1496 1496 1495 1494 1493 1493 1492 1491 1489 1488 1487 1485 1484 1483 1481 1480 1479 1478 1476 1475 1473 1472 1471 1470 1468
1518 1518 1518 1518 1518 1518 1517 1517 1516 1516 1515 1515 1514 1514 1513 1513 1512 1512 1511 1510 1510 1509 1508 1508 1508 1507 1506 1506 1506 1505 1505 1504 1504 1504 1503 1503 1502 1502 1501 1501 1500 1498 1497 1496 1495 1495 1494 1493 1493 1492 1490 1489 1488 1487 1486 1484 1483 1481 1480 1479 1478 1476 1475 1473 1472 1471 1470 1469 1468
1518 1518 1518 1517 1517 1517 1516 1515 1515 1515 1514 1514 1513 1512 1512 1511 1511 1510 1510 1509 1508 1508 1507 1507 1506 1506 1505 1505 1505 1504 1504 1503 1503 1503 1502 1501 1501 1500 1500 1500 1499 1498 1496 1495 1494 1494 1493 1492 1491 1490 1489 1488 1487 1486 1484 1483 1482 1480 1479 1478 1476 1475 1474 1473 1471 1470 1469 1468 1467
1517 1517 1516 1516 1516 1515 1515 1514 1514 1513 1513 1512 1511 1511 1510 1510 1509 1509 1508 1508 1507 1507 1506 1505 1505 1505 1504 1504 1503 1503 1503 1503 1502 1502 1501 1500 1500 1499 1498 1498 1498 1497 1495 1493 1493 1493 1492 1491 1490 1489 1488 1487 1486 1484 1483 1482 1481 1479 1478 1477 1475 1474 1473 1472 1471 1469 1468 1467 1466
1516 1515 1515 1515 1514 1514 1513 1513 1513 1512 1511 1511 1510 1509 1509 1508 1508 1507 1507 1507 1506 1505 1505 1504 1504 1503 1503 1503 1502 1502 1502 1502 1501 1500 1500 1499 1498 1498 1497 1497 1497 1495 1494 1492 1492 1491 1491 1490 1489 1488 1487 1486 1485 1483 1482 1481 1480 1478 1477 1476 1475 1473 1473 1471 1470 1469 1468 1467 1466
1514 1514 1514 1513 1513 1513 1512 1512 1511 1510 1510 1509 1508 1508 1508 1507 1506 1506 1506 1505 1505 1504 1503 1503 1502 1502 1502 1501 1501 1501 1501 1500 1500 1499 1499 1498 1498 1497 1496 1495 1495 1494 1493 1491 1491 1490 1490 1489 1488 1487 1486 1485 1484 1483 1482 1480 1479 1478 1476 1475 1474 1473 1472 1471 1469 1468 1467 1466 1466
1513 1513 1513 1512 1512 1511 1511 1510 1509 1509 1508 1508 1507 1507 1506 1505 1505 1505 1504 1504 1503 1503 1502 1501 1501 1501 1500 1500 1500 1499 1499 1499 1498 1498 1498 1498 1497 1496 1495 1494 1494 1493 1491 1490 1489 1489 1489 1488 1487 1486 1485 1484 1483 1482 1481 1479 1478 1477 1476 1475 1473 1472 1471 1470 1469 1468 1467 1466 1465
1512 1512 1511 1511 1510 1510 1509 1508 1508 1508 1507 1506 1506 1505 1504 1504 1504 1503 1503 1503 1502 1501 1501 1500 1500 1499 1499 1499 1498 1498 1498 1498 1497 1497 1497 1497 1496 1495 1494 1493 1493 1492 1490 1489 1488 1488 1488 1488 1487 1485 1484 1483 1482 1481 1480 1479 1478 1476 1475 1474 1473 1472 1471 1469 1468 1467 1466 1466 1465
Wind_Speed
4 3 3 3 3 3 3 3 3 3 4 5 6 5 5 4 5 4 4 4 4 5 5 5 5 5 5 7 9 11 11 11 10 10 11 10 9 8 9 9 10 10 10 10 11 12 12 11 11 12 14 16 16 14 12 11 11 12 13 13 13 13 13 13 14 15 15 16 16
4 3 3 2 2 2 1 1 1 1 1 2 3 4 5 5 5 5 4 3 4 5 5 5 5 4 5 6 8 10 11 11 11 11 11 10 8 8 8 9 9 10 10 11 11 12 12 12 12 14 15 16 16 14 12 11 11 12 13 13 13 14 14 15 16 17 18 18 17
4 3 2 1 1 1 2 2 2 2 1 2 4 5 5 6 5 4 3 3 4 4 5 5 5 5 5 6 7 9 10 10 10 11 11 10 8 7 8 9 10 10 11 11 12 12 12 13 14 15 16 16 16 15 14 13 12 12 13 14 15 16 17 17 18 18 18 18 17
3 2 1 0 1 3 3 4 4 4 5 5 5 5 5 5 5 4 2 2 2 3 5 6 7 8 8 8 8 9 9 9 9 10 10 9 8 8 8 9 10 11 11 12 12 12 12 13 14 15 16 16 16 16 15 14 13 13 14 15 16 17 18 18 18 18 18 17 17
3 3 3 3 3 4 5 5 6 6 5 5 4 4 4 4 4 3 2 1 2 3 6 8 9 10 10 9 9 8 8 8 8 9 9 8 8 8 9 9 10 11 12 12 11 12 12 13 14 15 15 16 16 16 16 15 15 14 15 15 16 17 18 19 19 19 19 18 18
5 5 4 3 3 3 4 4 4 3 3 2 2 2 3 3 3 3 2 2 3 4 6 9 10 11 10 10 9 8 7 7 8 8 8 8 9 9 10 11 11 12 12 12 12 12 12 13 14 14 14 14 15 15 15 15 15 14 15 16 17 18 19 19 20 20 21 21 21
6 5 4 3 3 3 3 3 3 2 2 1 1 3 4 4 4 4 4 4 4 5 6 8 9 10 10 9 8 8 7 7 7 8 8 8 9 11 12 13 13 13 13 13 13 13 14 15 15 15 15 14 14 14 15 15 15 15 16 17 19 19 19 20 21 21 22 22 23
4 4 4 3 3 3 3 3 2 1 0 1 2 4 6 6 6 5 5 4 3 4 6 7 7 7 8 8 8 8 8 7 8 8 9 10 11 13 14 14 14 14 14 14 14 15 14 14 14 14 14 14 14 14 14 15 16 17 18 20 21 21 21 21 21 21 21 21 21
4 5 4 3 3 3 3 3 3 2 2 3 4 6 7 8 7 7 6 5 4 5 6 6 6 7 7 8 8 8 8 8 8 9 10 12 14 14 14 14 14 14 14 15 14 14 13 13 13 13 13 14 14 14 14 15 17 18 20 21 22 22 21 21 20 20 20 20 21
6 5 4 4 4 4 4 3 3 2 2 3 5 7 8 9 9 8 7 7 8 7 7 6 6 7 8 8 8 8 8 8 9 11 12 14 14 14 13 13 14 14 14 14 13 13 13 13 13 13 14 14 14 15 15 16 17 18 19 20 20 21 21 20 20 20 20 21 21
6 5 4 3 3 3 3 2 2 3 2 2 3 5 7 8 8 8 8 9 10 9 8 7 6 7 8 8 8 8 8 10 11 13 14 14 14 14 14 14 14 14 13 13 13 13 13 13 14 14 14 14 15 16 16 17 17 17 18 18 18 19 19 20 20 21 22 23 24
6 5 4 3 2 2 1 1 2 3 3 3 4 4 5 6 6 7 8 10 10 10 9 7 6 7 8 8 9 9 10 11 13 14 15 15 15 15 14 14 13 13 13 13 13 13 13 14 14 15 15 16 16 16 16 17 17 17 17 17 17 18 20 22 23 24 25 25 25
7 5 4 3 2 2 2 2 3 3 4 4 5 5 5 5 6 7 8 10 10 10 8 6 6 7 8 9 10 10 11 12 13 15 16 17 17 15 14 13 13 13 13 13 13 14 14 14 15 15 16 16 16 16 16 16 16 16 17 17 19 20 22 24 26 26 26 26 26
7 5 4 4 3 3 3 3 3 4 4 5 5 6 6 6 7 8 9 10 10 10 8 7 7 7 8 9 10 10 11 13 14 16 18 18 16 15 13 13 13 13 13 14 14 14 14 15 15 15 16 16 16 15 15 15 15 16 17 19 21 23 24 25 26 26 26 25 25
7 5 5 5 4 4 4 4 4 4 4 4 5 6 7 7 8 9 10 11 11 11 10 8 7 7 8 9 10 10 11 13 15 17 17 16 15 14 13 14 14 14 14 14 14 14 14 14 15 15 16 16 16 15 15 15 16 17 19 21 22 24 24 25 25 25 25 25 25
6 6 6 6 5 5 4 4 4 5 5 5 6 7 7 8 9 9 10 10 11 11 11 9 8 7 8 9 10 12 13 14 15 15 15 14 14 13 14 14 14 14 14 14 14 14 14 14 15 15 16 16 16 16 16 16 18 19 20 22 23 23 24 24 25 25 25 26 26
6 6 6 6 6 5 5 5 5 5 6 7 7 7 8 9 9 9 9 9 10 10 10 9 9 9 10 12 13 14 14 14 14 13 13 13 13 14 14 14 15 15 14 14 14 14 14 15 15 16 16 17 17 17 17 18 18 20 21 22 23 24 24 25 25 25 26 26 26
7 7 7 7 6 6 6 5 6 6 7 7 8 8 8 9 9 9 9 9 10 10 10 10 11 12 13 14 15 14 13 13 12 12 12 13 13 14 15 15 15 14 14 14 14 15 15 16 16 16 16 17 17 17 17 18 19 20 22 24 25 25 25 25 26 26 26 26 26
7 7 7 7 7 6 6 6 6 7 7 8 8 9 9 9 10 10 10 10 10 11 11 11 12 13 14 14 14 13 12 12 12 12 13 13 14 14 15 15 15 14 14 15 16 16 17 17 16 16 16 16 16 16 17 19 20 22 24 25 26 26 27 26 26 26 25 25 25
7 7 7 7 7 7 7 7 7 8 8 8 9 9 10 10 10 10 11 11 11 11 12 12 12 13 13 14 13 13 12 12 13 13 14 14 14 15 15 15 15 15 16 17 17 17 17 16 16 15 15 16 17 18 19 20 22 23 25 26 27 28 28 28 27 26 25 25 25
7 7 7 7 7 7 8 8 8 9 9 9 9 10 10 11 11 11 11 11 12 12 12 13 13 14 14 14 14 13 13 13 13 14 14 15 15 15 16 16 17 17 17 17 17 17 16 16 16 16 16 17 18 19 20 21 23 24 26 27 29 30 30 29 28 26 25 24 24
7 7 8 8 8 8 9 9 9 9 9 9 10 10 11 11 11 12 12 12 13 13 14 14 15 15 15 15 14 13 13 13 14 14 15 15 16 16 17 18 18 18 18 17 17 17 18 18 18 18 19 19 19 20 20 22 24 26 28 30 31 33 32 31 28 25 23 23 22
8 8 8 8 9 9 9 10 9 9 10 10 10 11 11 11 12 12 13 13 13 13 14 14 15 15 15 14 13 13 13 13 14 15 15 16 17 17 18 18 19 18 18 17 18 19 19 20 20 20 20 20 20 21 22 24 25 28 30 32 34 34 33 30 27 24 22 21 21
8 8 8 9 9 9 9 9 10 10 10 11 11 11 12 12 13 13 13 13 13 13 14 14 14 14 14 13 13 14 14 16 16 17 17 18 19 19 19 19 18 16 16 17 18 19 20 21 21 21 21 21 21 22 23 25 27 30 32 34 35 34 31 28 25 22 21 20 20
9 9 10 9 9 9 9 10 10 11 11 11 12 12 12 13 13 13 14 14 14 14 14 14 15 14 14 14 15 15 17 18 19 19 20 20 19 19 18 18 16 14 15 17 18 19 21 21 22 22 22 22 23 24 26 27 30 32 33 34 33 31 29 26 23 21 20 20 20
9 9 9 8 9 9 9 10 10 11 11 11 12 12 12 13 13 14 14 14 15 15 15 15 15 15 15 16 16 18 19 20 20 20 20 20 19 18 16 15 13 14 15 17 19 20 21 22 22 22 23 24 25 26 28 30 32 33 33 32 31 28 26 23 21 20 20 20 20
7 7 8 8 8 9 9 10 10 10 11 11 12 12 13 13 14 14 15 15 15 15 15 15 16 16 16 17 18 18 19 19 18 18 19 19 19 17 15 12 12 14 16 18 20 21 22 22 23 23 24 25 26 28 29 31 32 32 31 30 28 25 23 21 20 20 20 20 19
6 7 7 8 9 9 9 9 9 10 10 11 12 12 13 14 15 15 16 16 16 16 16 16 17 17 17 17 17 17 17 16 16 17 18 19 17 16 13 10 12 15 17 19 20 22 22 23 23 24 25 26 27 29 30 31 31 30 29 28 26 23 20 19 19 19 19 19 19
6 7 8 8 9 9 9 9 9 9 10 11 12 13 14 15 16 16 17 17 16 16 16 17 17 17 17 16 16 15 15 15 15 17 18 17 15 13 11 9 11 15 19 20 21 22 22 23 23 24 25 26 28 29 30 30 29 28 27 26 23 20 18 18 18 19 19 19 19
7 7 8 8 8 8 8 8 9 10 11 12 13 14 15 16 17 17 17 17 18 17 17 17 18 17 17 16 15 14 14 14 16 17 17 16 13 11 10 9 11 15 19 20 21 22 22 23 24 25 26 28 29 29 29 27 27 26 25 24 21 18 17 17 18 18 19 19 19
7 7 7 7 7 8 8 9 9 10 12 13 14 15 16 17 17 18 18 19 20 19 19 18 18 17 17 16 15 14 15 15 16 16 16 15 12 11 10 8 10 14 18 19 20 21 22 23 24 26 27 28 28 28 26 25 25 25 24 21 18 16 16 17 18 19 19 20 21
7 7 6 6 7 8 9 10 11 12 13 14 15 16 17 18 18 19 19 20 20 20 19 19 18 17 17 16 15 15 16 16 16 16 15 14 12 11 10 8 10 13 17 19 20 21 23 24 26 27 28 27 26 24 23 23 24 23 22 18 16 15 16 17 18 19 20 21 21
6 6 7 8 8 9 9 11 12 14 15 16 16 17 18 18 19 19 20 20 20 20 19 18 18 17 16 16 15 15 15 15 15 15 15 14 12 11 9 8 10 13 17 19 20 22 23 25 26 26 26 24 22 22 22 22 23 22 20 17 15 15 16 18 19 20 20 19 18
6 7 8 9 9 10 11 13 15 16 16 17 17 17 18 19 19 19 20 20 20 19 18 17 16 16 15 14 14 14 14 14 15 16 15 14 13 11 10 9 11 14 17 19 21 23 24 25 25 23 22 20 20 21 21 22 22 21 19 17 15 15 16 17 18 18 17 16 15
7 7 8 9 11 12 14 16 17 17 17 17 17 18 19 19 20 20 20 19 19 19 18 17 16 15 14 13 13 13 14 15 15 14 13 13 12 12 11 10 12 15 18 20 22 24 24 23 21 19 18 19 20 21 21 22 21 20 19 17 16 16 16 17 17 16 15 14 14
7 8 10 12 14 16 17 18 17 17 17 17 18 20 20 21 20 19 19 19 19 19 18 16 15 14 13 13 13 13 13 14 13 11 11 11 12 12 12 12 12 15 19 22 24 24 22 20 18 18 18 19 20 21 21 21 20 19 18 17 16 16 16 16 15 15 14 13 13
9 11 13 15 17 18 17 17 16 16 17 18 20 21 21 21 20 19 18 19 19 18 16 15 13 12 12 13 13 13 13 13 11 10 10 11 12 13 14 14 14 16 20 23 24 22 20 18 18 18 19 20 20 20 20 20 19 18 18 17 17 16 16 15 14 14 13 13 13
12 14 16 17 17 16 16 15 16 17 18 19 20 21 21 20 19 19 18 18 17 16 14 13 12 12 12 13 14 14 14 12 11 10 10 11 13 15 16 17 17 18 20 23 22 20 18 18 18 19 19 20 20 20 20 19 19 18 17 17 17 16 15 15 14 13 13 13 13
15 16 16 16 15 15 15 16 17 18 19 20 20 20 20 19 19 18 18 18 16 14 13 12 12 12 13 13 14 14 14 12 11 11 11 11 13 15 17 19 19 19 20 21 20 19 18 18 19 19 19 19 19 19 19 19 18 17 17 17 17 16 15 14 14 14 14 14 14
16 16 15 14 14 15 16 17 18 18 19 19 20 19 19 18 18 17 17 16 15 13 13 13 14 14 14 14 14 14 13 12 12 12 11 11 12 14 17 18 18 18 18 19 19 18 18 18 19 19 19 19 19 19 19 18 18 17 17 17 17 17 16 15 14 14 14 14 14
15 14 13 13 15 16 17 18 18 19 19 19 19 19 18 17 16 16 16 15 14 13 14 14 15 15 16 15 14 13 13 12 12 13 13 13 13 14 15 16 16 15 15 17 19 19 18 18 18 18 18 18 18 18 18 18 18 17 17 17 17 17 17 16 16 15 15 15 14
Wind_Direction
239 237 232 230 231 226 218 207 202 202 201 201 207 217 226 221 217 226 248 265 268 273 283 295 302 298 288 285 290 295 300 304 304 303 304 307 308 304 299 298 301 305 306 306 307 308 308 305 301 299 300 302 304 304 301 298 298 298 298 298 298 297 296 295 296 296 297 298 298
260 261 259 263 275 292 319 11 55 79 132 205 224 234 241 242 240 239 240 249 261 273 285 298 304 303 294 291 292 295 299 303 303 302 303 306 304 300 296 296 299 301 302 303 304 305 304 301 298 298 300 303 306 307 303 298 296 296 297 297 295 293 293 293 294 295 296 296 296
271 283 290 307 355 45 66 77 89 113 171 227 247 255 260 265 270 266 250 244 258 271 281 291 296 296 292 287 288 291 296 300 300 301 302 305 302 296 292 292 295 297 299 300 301 302 302 298 296 296 297 300 303 304 302 296 292 291 293 293 292 292 292 293 294 294 294 295 295
270 282 282 232 163 161 167 177 188 202 217 234 245 254 263 275 287 292 284 252 251 260 269 279 290 295 296 292 290 291 295 298 298 299 301 302 299 294 291 292 294 296 297 298 299 300 299 296 294 293 295 298 301 303 302 298 293 290 289 290 290 291 292 294 295 295 295 295 296
274 274 265 244 221 212 212 218 225 233 242 250 248 249 258 276 290 299 298 259 241 251 263 277 290 300 305 305 302 299 297 296 295 295 296 296 293 291 290 291 293 295 295 296 297 298 296 294 293 293 295 298 301 302 302 301 297 293 291 291 293 295 297 300 301 300 299 298 298
283 282 277 270 263 259 258 260 265 273 279 278 246 227 233 255 276 282 271 247 242 250 265 281 295 305 311 314 314 309 301 294 291 291 291 289 287 285 286 288 290 291 292 293 293 292 290 288 289 292 294 297 299 300 301 301 299 297 296 297 299 301 303 303 302 300 299 298 297
282 282 280 283 302 312 312 312 317 327 340 350 225 223 233 249 263 267 264 262 254 257 270 285 298 306 311 314 314 308 299 291 287 286 284 282 280 280 283 286 288 289 290 290 290 289 288 287 290 293 295 297 297 298 300 301 300 300 300 301 302 302 300 298 296 295 296 296 296
266 264 265 282 311 326 322 311 311 317 22 183 222 240 252 271 282 290 293 293 281 273 275 282 291 297 301 303 304 300 295 289 285 282 279 276 278 283 287 290 291 291 291 291 293 295 297 298 300 301 302 300 298 297 298 298 298 298 298 299 299 298 296 295 295 296 298 299 299
221 230 242 271 308 322 317 302 295 270 215 210 231 254 272 290 302 310 318 321 311 297 285 280 280 284 289 293 296 295 291 285 280 276 275 278 284 290 294 295 294 293 294 297 302 307 309 310 309 305 302 300 297 296 297 296 296 296 297 297 298 298 299 299 300 302 303 302 301
210 224 243 278 320 336 334 317 310 300 269 237 249 270 288 302 308 313 318 322 323 317 306 294 288 286 287 290 292 290 285 279 274 273 278 285 292 296 296 294 294 295 299 305 310 313 312 309 305 301 298 297 296 297 297 297 298 297 297 298 299 301 303 304 305 304 303 302 301
207 223 246 283 327 344 343 313 302 302 297 275 269 282 296 306 308 309 310 315 323 326 325 315 302 292 288 287 286 283 278 274 272 277 284 292 296 296 295 295 297 301 305 309 311 310 307 303 300 297 296 297 297 297 297 298 297 297 298 301 304 306 306 305 304 303 301 300 298
206 220 239 265 301 324 306 251 259 270 275 271 268 271 282 294 295 294 296 304 315 325 330 323 306 292 285 281 280 277 274 273 275 281 289 295 298 300 301 303 305 307 308 308 307 305 301 299 298 297 297 298 298 297 297 297 298 299 301 305 306 306 305 303 301 300 299 298 297
212 221 231 244 253 253 239 238 247 254 259 260 260 260 262 267 269 272 278 289 304 317 323 317 299 287 282 280 279 278 277 277 279 283 290 297 304 308 310 310 309 306 304 302 301 300 298 298 298 298 299 299 299 299 299 299 301 302 304 305 304 303 302 301 300 300 299 299 299
224 230 232 235 237 239 243 247 252 254 256 258 261 262 261 261 261 264 269 279 292 304 310 305 291 283 281 281 282 281 280 280 281 286 293 301 308 312 311 307 303 300 299 299 299 299 300 300 301 301 301 301 301 302 301 301 301 302 301 301 301 301 301 302 302 301 301 301 301
238 238 233 233 236 242 247 251 253 254 253 256 262 264 266 265 266 266 269 275 283 293 301 300 290 281 280 281 282 282 281 280 283 288 295 303 307 307 304 300 298 298 299 300 301 301 302 302 303 303 303 303 302 302 300 299 298 297 296 298 299 301 303 303 302 302 301 300 300
243 239 232 234 239 245 249 251 249 251 257 262 267 270 271 272 273 273 272 275 280 288 295 296 289 279 275 276 278 280 280 281 285 291 297 300 300 299 298 298 298 299 300 302 302 303 303 303 303 303 303 303 301 299 297 295 294 295 296 299 301 303 304 303 302 300 299 299 299
240 235 233 236 242 247 249 250 252 260 269 276 279 279 278 279 279 278 276 276 279 283 287 287 281 276 275 278 282 284 285 286 288 291 293 294 294 295 296 298 299 299 300 301 303 303 303 303 303 303 303 302 299 297 295 295 295 297 299 302 304 304 304 302 301 300 299 299 299
241 235 235 237 241 246 251 255 263 272 279 284 287 286 285 285 284 282 279 277 277 279 280 279 276 276 280 286 292 294 294 292 290 288 288 288 291 294 296 298 299 299 300 300 301 302 303 303 304 304 303 301 299 297 296 297 298 300 302 304 305 304 303 302 301 300 300 300 300
239 235 236 238 242 248 255 263 270 277 281 285 287 289 290 289 287 284 281 278 278 278 277 276 275 278 285 292 297 298 296 293 288 286 285 288 291 294 296 297 297 297 297 297 298 300 302 303 304 304 303 301 300 299 299 299 300 302 303 304 304 304 304 303 302 300 300 300 300
235 234 236 238 244 251 259 266 271 275 279 283 287 290 291 291 289 286 283 280 278 276 274 273 275 280 287 293 295 293 290 287 285 284 286 288 291 293 295 295 294 293 293 294 296 299 301 302 302 301 300 298 298 299 300 301 301 302 302 303 304 304 304 304 302 300 299 299 299
232 233 236 240 246 256 263 268 270 273 277 282 287 291 292 292 290 288 284 281 277 274 271 272 275 280 286 291 290 287 284 283 282 284 286 288 290 292 292 291 290 290 291 294 296 297 298 299 299 298 296 294 294 296 298 299 300 301 301 302 303 305 305 305 303 301 299 299 299
231 233 238 245 254 263 268 272 273 276 280 285 290 292 294 293 292 290 287 283 279 275 273 274 276 280 285 288 286 284 281 281 282 284 286 288 289 289 289 288 288 290 293 296 296 296 297 299 299 298 296 294 293 293 295 297 298 298 300 302 304 306 307 307 306 304 302 301 301
231 236 245 257 267 273 276 277 279 282 286 290 293 294 294 294 294 292 290 287 284 282 280 279 281 283 284 284 282 280 281 282 285 286 287 287 288 287 287 286 287 291 295 295 295 297 300 303 304 302 300 297 295 294 294 296 297 299 302 304 306 308 309 310 310 308 306 303 302
233 247 262 273 278 280 281 281 284 287 291 293 295 296 297 297 296 295 293 291 289 287 285 284 285 284 283 281 279 279 281 284 286 287 287 287 286 286 285 285 288 293 296 295 296 300 304 306 306 305 303 301 299 298 298 299 301 303 305 307 309 310 312 313 313 312 309 305 303
251 266 277 281 281 280 282 284 288 291 295 297 298 299 299 299 298 297 296 294 292 290 288 287 286 284 283 281 280 280 282 285 287 288 289 288 287 286 285 285 291 294 295 294 299 303 306 307 306 305 304 303 302 302 303 304 305 306 307 309 310 312 314 316 315 313 309 306 304
272 280 281 279 278 279 282 286 291 295 298 299 300 300 300 301 301 300 298 296 294 292 290 288 286 285 283 282 281 282 284 287 289 290 291 289 287 285 285 288 294 295 293 296 301 304 305 305 305 304 304 303 303 304 305 306 307 308 309 310 312 314 317 318 316 313 309 306 304
281 280 277 275 276 279 283 288 294 297 299 300 300 300 300 301 301 300 298 296 295 293 290 288 286 285 284 283 282 283 286 289 291 291 290 288 287 285 288 295 298 296 295 299 302 303 303 303 302 302 303 303 304 305 306 307 308 309 310 312 315 318 320 319 316 312 310 307 305
277 274 273 275 278 282 287 293 297 299 300 300 300 300 300 300 299 298 296 296 294 293 290 288 286 285 284 283 282 283 286 289 291 290 289 289 289 289 293 304 305 300 299 302 303 303 303 303 302 302 303 304 305 307 308 309 310 311 313 315 319 322 323 320 315 312 310 307 305
272 272 274 277 282 288 293 296 298 299 300 301 300 300 300 299 297 296 295 294 293 292 290 288 287 286 285 283 281 280 282 285 288 289 290 291 291 291 295 308 308 303 301 304 305 305 304 304 304 305 305 306 307 308 309 310 312 314 316 320 324 326 324 318 314 310 308 306 304
270 273 277 281 289 293 293 292 294 297 299 300 300 299 299 297 296 295 294 292 291 289 288 288 287 287 285 283 281 279 279 283 287 290 292 292 291 290 295 308 307 303 302 304 305 305 305 306 305 305 306 307 308 309 310 312 315 317 321 325 328 327 321 314 309 306 303 303 302
272 276 281 288 287 284 284 289 294 296 296 297 298 297 297 296 295 293 292 291 290 289 288 287 286 286 284 282 280 278 278 282 287 290 292 292 291 292 296 303 303 300 300 302 304 304 304 304 304 304 305 306 308 310 312 315 319 323 326 329 328 322 314 308 303 300 299 299 299
277 282 285 279 273 275 282 290 293 294 295 296 296 296 296 295 294 292 291 290 291 291 290 289 287 285 282 279 277 276 278 282 285 288 290 292 292 293 295 297 296 296 298 299 300 301 301 301 301 302 304 306 309 312 316 320 324 328 330 329 322 314 307 302 300 300 300 300 301
285 283 278 272 274 281 286 290 292 293 294 295 295 295 295 295 294 292 290 290 292 292 292 290 287 284 280 277 275 276 278 282 285 287 288 288 287 288 291 293 291 292 294 295 296 297 298 299 300 303 305 309 313 318 322 326 329 332 331 326 318 310 305 303 303 305 307 309 310
287 283 281 282 285 288 289 290 292 293 294 294 294 295 296 296 294 291 289 290 292 292 291 289 286 282 279 276 275 277 280 283 286 287 286 284 281 281 285 289 290 290 291 292 293 295 297 300 303 306 310 315 320 325 328 331 333 334 333 329 322 315 312 312 313 316 318 321 323
288 290 290 288 287 288 290 292 294 295 295 295 295 296 297 295 293 291 290 292 293 292 290 287 284 280 277 277 278 281 284 286 288 287 284 280 278 278 282 286 290 290 290 291 293 297 301 305 309 314 318 323 327 330 332 334 335 337 337 336 331 327 323 323 324 326 329 331 331
287 286 284 285 288 291 294 296 298 298 298 297 296 296 295 294 293 293 293 294 293 292 289 286 282 278 277 278 281 284 287 288 288 285 282 279 280 283 284 285 286 287 289 292 296 302 307 313 318 322 325 328 330 333 335 336 338 340 343 344 342 338 335 333 334 335 337 338 338
279 279 283 288 293 297 300 302 303 302 301 298 296 294 293 292 293 294 295 295 293 291 288 284 279 276 276 279 284 287 287 286 283 281 282 284 286 287 287 286 285 287 291 295 301 308 315 321 324 326 328 330 333 335 336 338 340 344 348 350 348 346 343 342 342 344 346 346 345
276 283 290 296 301 304 307 308 306 303 300 297 294 292 292 292 292 293 294 294 292 289 285 280 275 274 277 281 285 287 285 280 276 278 283 289 290 289 289 290 291 292 295 299 306 313 321 325 326 327 329 331 334 336 337 339 342 346 351 352 351 349 348 348 350 352 354 354 351
284 293 300 305 309 310 310 308 304 300 297 294 293 292 291 291 290 291 292 292 290 285 279 275 274 277 281 285 286 285 281 275 273 276 282 290 292 293 294 296 298 297 297 300 307 316 322 326 326 327 329 332 334 336 338 339 343 347 351 352 351 351 352 353 356 358 360 359 355
295 303 310 314 313 310 306 302 298 295 293 292 292 292 292 291 290 291 292 290 285 279 275 275 278 281 285 287 286 282 277 272 271 273 279 286 291 294 297 300 301 300 298 300 307 315 321 325 326 328 330 333 335 337 338 340 343 347 350 351 351 351 352 355 359 1 2 360 356
306 313 317 314 309 304 300 297 294 292 291 291 292 293 294 293 292 292 290 286 280 277 277 280 283 285 287 286 283 279 276 273 273 275 279 283 287 291 295 298 300 298 295 296 303 312 318 323 326 329 331 334 336 338 339 340 344 347 350 350 349 349 351 355 359 2 1 358 353